Location: Absolut Center for Nursing and Rehabilitation at Dunkirk
(42.4792°N, 79.3590°W)
Time: 00:55:17
(UTC+00:00)

Daily predictions for brighter satellites

Satellite Brightness Start Highest point End
(mag) Time Altitude Azimuth Time Altitude Azimuth Time Altitude Azimuth
STARLINK-1166 4.1 01:09:46 10° NW 01:13:50 53° NNE 01:17:53 10° ESE
FREGAT/IRIS 3.7 01:13:31 10° S 01:16:03 38° W 01:18:35 10° NNW
STARLINK-1231 4.3 01:14:11 10° SSW 01:17:52 32° SE 01:21:34 10° ENE
STARLINK-1165 4.0 01:14:45 10° NW 01:18:50 57° NNE 01:22:55 10° ESE
CZ-2C R/B 2.8 01:13:37 10° NNE 01:19:11 64° E 01:24:45 10° S
Cosmos 1666 3.1 01:15:26 10° NNW 01:19:17 69° W 01:23:05 10° S
ARGOS 3.8 01:14:31 10° S 01:19:47 57° W 01:25:07 10° NNW
STARLINK-1228 3.2 01:16:34 10° WSW 01:19:54 79° NW 01:23:15 10° NE
Cosmos 1536 3.2 01:16:21 10° NNW 01:20:23 70° W 01:24:25 10° S
SL-08 RB Rocket 4.1 01:16:31 10° S 01:21:07 70° WSW 01:25:43 10° NNW
STARLINK-1234 3.0 01:18:08 10° SW 01:21:13 81° NW 01:24:21 10° NE
SL-8 R/B 4.0 01:16:29 10° WSW 01:21:17 76° NNW 01:26:07 10° ENE
DNEPR-1 R/B 4.3 01:15:39 10° NW 01:22:01 82° WSW 01:27:05 10° SSE
STARLINK-1212 2.7 01:19:31 10° SW 01:22:36 74° SE 01:25:42 10° ENE
STARLINK-1232 4.2 01:19:03 10° SSW 01:22:49 35° SE 01:26:36 10° ENE
Tsikada Rocket 4.4 01:17:06 10° SSE 01:22:56 44° E 01:28:44 10° NNE
STARLINK-1105 2.7 01:19:58 10° SW 01:23:04 74° SE 01:26:09 10° ENE
STARLINK-1209 3.2 01:20:23 10° WSW 01:23:29 72° NW 01:26:39 10° NE
Cosmos 44 Rocket 3.4 01:18:40 10° NNW 01:23:32 68° NE 01:28:28 10° SE
STARLINK-1169 3.9 01:19:42 10° NW 01:23:49 61° NNE 01:27:55 10° ESE
STARLINK-1247 2.7 01:20:53 10° SW 01:23:59 76° SE 01:27:06 10° NE
STARLINK-1227 2.7 01:21:20 10° SW 01:24:26 77° SE 01:27:32 10° NE
STARLINK-1226 2.7 01:22:12 10° SW 01:25:18 79° SE 01:28:25 10° NE
STARLINK-1215 2.8 01:23:08 10° SW 01:26:14 80° SE 01:29:21 10° NE
STARLINK-1208 4.1 01:23:55 10° SSW 01:27:45 38° SE 01:31:36 10° ENE
STARLINK-1217 2.8 01:24:54 10° SW 01:28:00 84° SE 01:31:07 10° NE
Cosmos 2346 Rocket 4.5 01:22:14 10° S 01:28:13 65° E 01:34:17 10° NNE
STARLINK-1178 3.8 01:24:40 10° NW 01:28:48 66° NE 01:32:50 10° ESE
STARLINK-1229 2.8 01:25:49 10° SW 01:28:55 85° SE 01:32:02 10° NE
STARLINK-1270 2.8 01:26:41 10° SW 01:29:47 87° SE 01:32:54 10° NE
STARLINK-1189 2.8 01:28:31 10° SW 01:31:37 90° NNW 01:34:45 10° NE
STARLINK-1188 2.8 01:29:24 10° SW 01:32:30 88° NNW 01:35:38 10° NE
STARLINK-1271 4.0 01:28:49 10° SSW 01:32:43 42° SE 01:36:39 10° ENE
STARLINK-1235 3.3 01:30:07 10° WSW 01:33:11 66° NW 01:36:16 10° NE
STARLINK-1187 3.0 01:30:32 10° WSW 01:33:36 75° NW 01:36:42 10° NE
SJ-6B 3.9 01:30:11 10° S 01:33:46 42° W 01:37:21 10° NNW
STARLINK-1120 3.7 01:29:39 10° NW 01:33:48 72° NE 01:37:37 12° ESE
STARLINK-1191 2.9 01:31:53 10° SW 01:34:59 83° NW 01:38:05 10° NE
Cosmos 2278 Rocket 3.3 01:30:48 10° SSE 01:35:12 24° ESE 01:39:37 10° NE
Lacrosse 5 4.0 01:32:02 10° NNW 01:35:42 20° NNE 01:39:21 10° ENE
STARLINK-1221 2.9 01:32:45 10° SW 01:35:50 82° NW 01:38:57 10° NE
STARLINK-1222 2.9 01:33:38 10° SW 01:36:44 80° NW 01:39:50 10° NE
Cosmos 2084 Rocket 3.6 01:33:23 10° SW 01:37:37 78° NW 01:41:59 10° NE
STARLINK-1214 3.0 01:34:33 10° WSW 01:37:39 79° NW 01:40:45 10° NE
USA 186 4.1 01:36:13 10° SW 01:37:39 15° W 01:39:10 10° NW
STARLINK-1154 3.8 01:33:44 10° SSW 01:37:41 46° SE 01:41:40 10° ENE
Abrixas rocket 2.8 01:35:04 10° W 01:37:57 52° NNW 01:40:50 10° ENE
ASTEX 1 3.6 01:33:24 10° S 01:38:16 75° W 01:43:12 10° N
Terra 4.1 01:37:22 10° ENE 01:38:27 11° ENE 01:39:33 10° NE
STARLINK-1131 3.7 01:34:36 10° NW 01:38:46 78° NE 01:42:24 13° ESE
Cosmos 1733 Rocket 4.4 01:37:15 10° NNW 01:41:20 39° W 01:45:22 10° SSW
CREW DRAGON DEMO-1 DEB 3.7 01:39:30 10° NW 01:42:28 42° NNE 01:45:07 12° E
Meteor 1-18 Rocket 4.3 01:37:09 10° S 01:42:33 57° E 01:48:04 10° NNE
STARLINK-1197 3.7 01:38:38 10° SSW 01:42:38 51° SE 01:46:40 10° ENE
STARLINK-1190 3.6 01:39:33 10° NW 01:43:43 85° NE 01:47:09 15° SE
STARLINK-1157 3.5 01:41:18 10° WNW 01:44:33 53° SW 01:47:06 15° SSE
Cosmos 1844 Rocket 3.3 01:39:18 10° SW 01:44:53 62° WNW 01:50:31 10° NNE
USA 245 4.3 01:43:52 14° SE 01:46:20 26° ENE 01:49:03 10° NNE
STARLINK-1198 3.6 01:43:32 10° SW 01:47:35 56° SE 01:51:38 10° ENE
Okean 1-7 3.0 01:43:48 10° S 01:48:03 64° E 01:52:17 10° NNE
STARLINK-1129 3.6 01:44:34 10° NW 01:48:43 89° SW 01:51:58 16° SE
Hubble Space Telescope 2.9 01:49:28 10° SSW 01:50:49 11° S 01:51:31 11° SSE
STARLINK-1087 2.0 01:48:53 10° NW 01:50:52 55° NE 01:51:45 25° ESE
Meteor 1-4 Rocket 3.2 01:49:27 14° SSE 01:51:56 34° E 01:55:06 10° NNE
STARLINK-1199 3.6 01:48:30 10° SW 01:52:34 62° SE 01:56:40 10° ENE
STARLINK-1134 3.6 01:49:34 10° NW 01:53:43 82° SW 01:56:46 18° SE
Cosmos 407 Rocket 3.7 01:48:52 10° NNW 01:54:10 63° ENE 01:58:29 16° SSE
Resurs 01 Rocket 1.7 01:52:04 10° SSE 01:56:31 83° WSW 02:01:00 10° NNW
STARLINK-1210 3.5 01:53:26 10° SW 01:57:32 68° SE 02:01:39 10° ENE
STARLINK-1135 3.6 01:54:32 10° NW 01:58:40 75° SW 02:01:31 19° SE
SPOT 3 Rocket 4.3 01:55:09 10° S 02:00:08 51° W 02:05:10 10° NNW
NOSS 2-3 (E) 3.5 01:56:24 10° SSW 02:00:35 75° ESE 02:05:26 10° NE
BREEZE-M DEB (TANK) 3.1 01:58:50 10° WNW 02:01:01 37° SW 02:02:09 22° SSE
STARLINK-1219 3.5 01:58:22 10° SW 02:02:30 74° SE 02:06:38 10° ENE
Sich 1 Rocket 4.0 01:59:02 10° N 02:03:29 48° ENE 02:06:30 19° SE
STARLINK-1141 3.7 01:59:32 10° WNW 02:03:40 68° SW 02:06:19 21° SE
Cosmos 724 4.4 02:00:01 10° NNW 02:05:55 69° NE 02:10:18 19° SE
STARLINK-1211 3.5 02:03:19 10° SW 02:07:28 81° SE 02:11:36 10° NE
SPOT 1/Viking Rocket 4.1 02:04:24 18° SE 02:07:56 45° ENE 02:12:51 10° N
COSMOS 2406 3.5 02:02:33 10° NNW 02:08:14 55° ENE 02:12:12 20° SE
STARLINK-1140 3.8 02:04:30 10° WNW 02:08:35 62° SW 02:11:05 22° SE
Meteor 2-4 Rocket 3.9 02:05:03 13° SSE 02:09:38 49° E 02:14:47 10° NNE
ERBS 3.2 02:10:25 26° SE 02:10:27 26° SE 02:13:18 10° ENE
Cosmos 1782 Rocket 3.6 02:06:38 10° N 02:11:08 88° E 02:14:38 16° S
STARLINK-1245 3.5 02:08:18 10° SW 02:12:26 88° SSE 02:16:36 10° NE
SPOT 5 4.0 02:10:08 18° ESE 02:13:08 32° ENE 02:17:46 10° N
STARLINK-1156 3.9 02:09:31 10° WNW 02:13:34 57° SW 02:15:52 24° SSE
Cosmos 1544 3.0 02:11:17 10° N 02:14:57 79° E 02:17:04 23° SSE
Cosmos 1743 3.7 02:11:49 10° NNW 02:15:28 43° W 02:19:04 10° SSW
Cosmos 1703 Rocket 4.3 02:11:42 10° SSW 02:15:55 53° W 02:20:10 10° N
Cosmos 1190 Rocket 4.0 02:11:08 10° NNW 02:16:22 81° ENE 02:19:54 21° SSE
Cosmos 1624 Rocket 4.0 02:11:34 10° SSW 02:16:53 88° ESE 02:22:15 10° NNE
SAR-Lupe-2 3.5 02:13:24 10° NNE 02:17:00 68° ESE 02:19:32 18° S
Cosmos 909 Rocket 4.3 02:09:07 10° NNW 02:17:04 90° ENE 02:21:51 20° SSE
STARLINK-1233 3.6 02:13:16 10° SW 02:17:25 85° NNW 02:21:34 10° NE
STARLINK-1148 4.0 02:14:31 10° WNW 02:18:32 51° SW 02:20:39 25° SSE
Okean 2 Rocket 3.6 02:16:02 10° N 02:20:17 43° ENE 02:22:21 26° SE
NOSS 2-3 (D) 3.7 02:16:20 10° SW 02:20:32 79° NW 02:25:26 10° NE
STARLINK-1204 3.7 02:18:16 10° WSW 02:22:25 79° NW 02:26:34 10° NE
STARLINK-1158 4.2 02:19:30 10° WNW 02:23:30 47° SW 02:25:26 26° SSE
SL-4 R/B 3.7 02:22:13 10° NNE 02:23:52 13° NE 02:25:03 11° ENE
TELKOM 3 3.6 02:22:02 10° WNW 02:23:58 36° SW 02:23:58 36° SW
STARLINK-1088 4.3 02:21:45 10° NW 02:25:47 48° NNE 02:28:18 21° E
MetOp-B 4.3 02:21:53 16° S 02:26:10 74° WSW 02:31:33 10° NNW
NOSS 3 (A) 4.3 02:26:54 50° SSE 02:27:11 54° ESE 02:29:55 10° NE
STARLINK-1238 3.8 02:23:14 10° WSW 02:27:21 73° NW 02:31:31 10° NE
Cosmos 1140 Rocket 3.4 02:22:18 10° NNW 02:27:32 89° WSW 02:30:46 24° SSE
STARLINK-1162 4.3 02:24:30 10° WNW 02:28:26 42° SW 02:30:12 27° S
STARLINK-1115 4.2 02:26:42 10° NW 02:30:46 51° NNE 02:33:04 23° E
Landsat 7 3.8 02:27:51 23° SSE 02:30:48 86° E 02:35:35 10° NNW
STARLINK-1201 4.0 02:28:15 10° WSW 02:32:21 67° NW 02:36:30 10° NE
Cosmos 1975 3.3 02:28:50 10° NNW 02:32:50 57° W 02:35:28 20° SSW
Aureole 1 Rocket 3.4 02:29:12 10° NNW 02:33:21 72° WSW 02:36:37 23° S
Cosmos 2151 Rocket 4.2 02:29:03 10° N 02:33:22 42° ENE 02:35:03 29° SE
STARLINK-1076 4.1 02:31:41 10° NW 02:35:46 55° NNE 02:37:52 26° E
ISS -1.4 02:34:36 10° NW 02:37:15 21° NNE 02:39:55 10° ENE
STARLINK-1206 4.1 02:33:15 10° WSW 02:37:21 62° NNW 02:41:28 10° NE
Cosmos 2279 Rocket 4.0 02:32:34 10° N 02:38:48 66° E 02:42:22 26° SSE
NOSS 3-1 (A) 4.1 02:35:05 10° SW 02:40:27 54° NW 02:46:41 10° NNE
STARLINK-1092 4.0 02:36:38 10° NW 02:40:45 59° NNE 02:42:38 29° ESE
STARLINK-1205 4.3 02:38:16 10° WSW 02:42:20 57° NNW 02:46:26 10° NE
ERS-1 Rocket 3.0 02:40:27 30° SSE 02:42:57 69° ENE 02:47:57 10° N
Cosmos 1954 Rocket 4.0 02:38:09 10° NNW 02:43:27 82° ENE 02:46:03 31° SSE
STARLINK-1237 4.4 02:45:42 32° ESE 02:45:42 32° ESE 02:48:35 10° ENE
STARLINK-1080 3.8 02:41:39 10° NW 02:45:46 65° NNE 02:47:27 33° ESE
Cosmos 2082 Rocket 2.8 02:41:38 10° NNW 02:47:07 44° ENE 02:49:50 27° ESE
STARLINK-1218 4.4 02:43:16 10° WSW 02:47:19 53° NNW 02:51:23 10° NE
SeaSat 1 3.4 02:43:23 10° NE 02:47:31 26° ESE 02:47:36 26° ESE
Spot 2 Rocket 4.0 02:45:52 20° S 02:49:11 54° W 02:54:08 10° NNW
STARLINK-1202 4.2 02:50:29 36° ESE 02:50:29 36° ESE 02:53:36 10° ENE
Cosmos 332 Rocket 4.2 02:48:37 35° SE 02:49:58 43° ESE 02:54:36 10° NNE
STARLINK-1090 3.7 02:46:36 10° NW 02:50:45 70° NE 02:52:13 38° ESE
EXPRESS MD2 3.7 02:51:01 41° SE 02:51:05 41° SE 02:56:41 10° ENE
Cosmos 1634 Rocket 4.4 02:47:31 10° NNW 02:53:44 61° W 02:58:25 18° SSW
Crew Dragon 3.0 02:53:01 10° NNW 02:54:08 13° NNE 02:54:37 12° NNE
Cosmos 1833 Rocket 2.6 02:49:48 10° NNW 02:55:27 81° ENE 02:57:57 35° SSE
STARLINK-1089 3.6 02:51:35 10° NW 02:55:44 76° NE 02:57:00 43° ESE
Cosmos 676 Rocket 4.1 02:51:06 10° NNW 02:56:20 75° WSW 02:58:44 33° S
CARTOSAT-1 3.5 02:56:41 41° SSE 02:58:10 90° W 03:02:31 10° NNW
Cosmos 1437 Rocket 2.7 02:58:27 53° SE 02:58:50 57° E 03:02:34 10° NNE
STARLINK-1246 3.8 03:00:01 47° ESE 03:00:01 47° ESE 03:03:37 10° ENE
STARLINK-1107 3.6 02:56:33 10° NW 03:00:42 82° NE 03:01:46 49° ESE
STARLINK-1224 3.7 03:04:46 53° SE 03:04:46 53° SE 03:08:37 10° ENE
Cosmos 1066 Rocket 4.3 03:03:59 38° SE 03:05:38 51° E 03:10:51 10° NNE
STARLINK-1066 3.5 03:01:33 10° NW 03:05:42 89° NE 03:06:34 55° SE
STARLINK-1225 3.5 03:09:33 60° SE 03:09:33 60° SE 03:13:38 10° ENE
STARLINK-1081 3.5 03:06:31 10° NW 03:10:41 84° SW 03:11:21 61° SE
Cosmos 1943 Rocket 3.8 03:12:02 17° E 03:12:02 17° E 03:14:59 10° ENE
MTI 4.2 03:10:31 10° NNE 03:13:04 52° NE 03:13:04 52° NE
Abrixas rocket 4.2 03:11:21 10° WNW 03:13:52 24° N 03:15:42 14° NE
STARLINK-1230 3.5 03:14:19 64° SSE 03:14:30 65° SE 03:18:37 10° ENE
BREEZE-M DEB (TANK) 4.2 02:53:25 10° SW 03:15:08 86° SSE 03:19:54 10° ENE
Terra 1.7 03:14:02 47° SSE 03:15:25 86° ENE 03:20:13 10° NNW
STARLINK-1070 3.5 03:11:29 10° NW 03:15:38 78° SW 03:16:07 66° SSE
Cosmos 2278 Rocket 3.0 03:13:24 10° SW 03:18:54 51° WNW 03:24:26 10° NNE
STARLINK-1243 3.4 03:19:05 65° S 03:19:28 72° SE 03:23:36 10° ENE
Lacrosse 5 2.3 03:14:39 10° NW 03:19:38 56° NE 03:21:33 35° E
STARLINK-1069 3.5 03:16:28 10° WNW 03:20:36 71° SW 03:20:53 67° S
Cosmos 1300 Rocket 4.3 03:16:53 10° NNW 03:21:09 46° W 03:22:41 32° SW
STARLINK-1236 3.4 03:23:51 63° SSW 03:24:27 79° SE 03:28:36 10° NE
Cosmos 1766 4.4 03:21:05 10° NNE 03:24:33 31° ENE 03:24:33 31° ENE
STARLINK-1085 3.6 03:21:29 10° WNW 03:25:35 65° SW 03:25:42 64° SSW
Thor Agena Rocket 4.0 03:24:17 10° NNE 03:29:19 43° E 03:29:52 42° ESE
Cosmos 1452 Rocket 3.9 03:26:55 20° SW 03:30:27 61° WNW 03:35:43 10° NNE
STARLINK-1086 3.7 03:26:28 10° WNW 03:30:28 58° SW 03:30:28 58° SW
Cosmos 1461 3.6 03:32:01 40° ENE 03:32:01 40° ENE 03:35:11 10° NE
Cosmos 1674 Rocket 4.0 03:33:06 41° SW 03:34:20 57° W 03:38:40 10° N
STARLINK-1269 3.5 03:33:22 50° SW 03:34:22 88° NW 03:38:32 10° NE
STARLINK-1095 3.9 03:31:28 10° WNW 03:35:15 52° WSW 03:35:15 52° WSW
Cosmos 371 Rocket 4.1 03:34:23 21° SW 03:37:25 49° WNW 03:42:10 10° N
STARLINK-1200 3.6 03:38:09 44° WSW 03:39:22 81° NW 03:43:32 10° NE
STARLINK-1077 4.2 03:36:27 10° WNW 03:40:01 46° WSW 03:40:01 46° WSW
Cosmos 1378 Rocket 3.8 03:40:42 50° SW 03:41:37 64° W 03:46:00 10° N
STARLINK-1078 4.4 03:38:43 10° NW 03:42:44 47° NNE 03:43:34 40° ENE
Cosmos 1733 4.2 03:39:13 10° N 03:42:20 36° ENE 03:42:20 36° ENE
STARLINK-1192 3.7 03:42:54 39° WSW 03:44:22 75° NW 03:48:31 10° NE
STARLINK-1075 4.4 03:41:28 10° WNW 03:44:48 41° WSW 03:44:48 41° WSW
ERBS 4.2 03:43:44 10° W 03:46:41 29° NW 03:49:40 10° NNE
STARLINK-1108 4.2 03:43:41 10° NW 03:47:44 50° NNE 03:48:22 45° ENE
STARLINK-1244 3.8 03:47:40 34° WSW 03:49:20 69° NW 03:53:28 10° NE
SPOT 5 4.3 03:49:22 26° SW 03:51:06 33° W 03:55:49 10° NNW
Cosmos 1975 Rocket 3.4 03:52:17 54° E 03:52:17 54° E 03:56:24 10° NNE
JB-3 4.5 03:48:13 10° N 03:52:23 70° WNW 03:52:40 67° WSW
STARLINK-1071 4.1 03:48:39 10° NW 03:52:44 54° NNE 03:53:08 51° NE
STARLINK-1138 4.0 03:52:26 30° WSW 03:54:19 64° NNW 03:58:26 10° NE
STARLINK-1110 4.0 03:52:50 10° NW 03:56:56 57° NNE 03:57:09 56° NE
SL-4 R/B 3.4 03:54:18 10° NW 03:55:53 24° WNW 03:55:53 24° WNW
STARLINK-1203 4.1 03:54:42 21° WSW 03:57:23 60° NNW 04:01:33 10° NE
Aureole 2 Rocket 3.8 03:59:22 34° N 03:59:22 34° N 04:01:21 10° NNE
STARLINK-1143 4.1 03:57:15 27° WSW 03:59:18 59° NNW 04:03:25 10° NE
Cosmos 2026 Rocket 4.0 03:59:29 52° SSE 04:00:54 68° E 04:07:10 10° NNE
STARLINK-1124 3.9 03:58:36 10° NW 04:02:42 63° NNE 04:02:42 63° NNE
STARLINK-1241 4.3 04:01:57 23° W 04:04:18 54° NNW 04:08:22 10° NE
Cosmos 1741 Rocket 4.4 04:00:10 10° NNW 04:05:11 49° WSW 04:05:54 46° SW
Cosmos 1470 4.3 04:03:52 10° NNE 04:06:38 27° ENE 04:06:38 27° ENE
STARLINK-1122 3.9 04:03:34 10° NW 04:07:29 66° N 04:07:29 66° N
STARLINK-1239 4.4 04:06:43 21° W 04:09:18 51° NNW 04:13:20 10° NE
Meteor 1-22 Rocket 4.2 04:03:32 10° N 04:09:34 88° E 04:10:40 61° SSE
BREEZE-M DEB (TANK) 3.2 04:00:17 10° WNW 04:10:11 75° SW 04:10:58 61° SSE
USA 215 3.3 04:07:45 35° ESE 04:10:42 75° NE 04:17:15 10° NW
Aureole 3 Rocket 4.3 04:07:03 10° N 04:12:27 55° E 04:14:10 44° SE
STARLINK-1126 3.9 04:08:29 10° NW 04:12:12 66° NNW 04:12:12 66° NNW
EO 1 Del DPAF 3.7 04:10:26 10° N 04:13:39 58° NNW 04:13:39 58° NNW
ISS -2.0 04:11:07 10° NW 04:13:01 31° NW 04:13:01 31° NW
Cosmos 1805 4.0 04:11:11 10° NNW 04:14:31 49° WNW 04:14:31 49° WNW
Cosmos 2297 4.1 04:12:54 35° SW 04:15:12 61° WNW 04:20:53 10° NNE
Okean 1 Rocket 4.2 04:11:11 10° NNW 04:15:14 34° W 04:15:36 33° WSW
BREEZE-M DEB 3.9 04:15:51 23° W 04:17:40 55° NNW 04:25:54 10° ENE
STARLINK-1082 4.0 04:13:31 10° NW 04:17:03 62° NW 04:17:03 62° NW
Okean 2 3.7 04:18:11 64° NW 04:18:11 64° NW 04:22:00 10° N
NOSS 2-2 (D) 4.2 04:19:14 42° NNE 04:19:14 42° NNE 04:21:56 10° NE
Cosmos 1378 4.5 04:20:54 34° WNW 04:20:54 34° WNW 04:24:07 10° N
STARLINK-1100 4.1 04:18:29 10° NW 04:21:49 56° NW 04:21:49 56° NW
Helios 1A 4.4 04:23:48 28° ENE 04:23:48 28° ENE 04:27:19 10° N
SeaSat 1 3.4 04:20:29 10° NNE 04:25:07 43° NW 04:27:22 27° WSW
Cosmos 1842 3.9 04:26:31 55° NNW 04:26:31 55° NNW 04:29:43 10° N
Meteor 1-24 4.5 04:26:27 71° SSE 04:27:01 81° E 04:32:35 10° NNE
STARLINK-1083 4.3 04:23:28 10° NW 04:26:36 50° WNW 04:26:36 50° WNW
Cosmos 1455 Rocket 3.1 04:23:38 10° N 04:27:35 72° N 04:27:35 72° N
Cosmos 2082 Rocket 3.5 04:26:11 10° NW 04:30:57 28° WSW 04:31:41 27° WSW
STARLINK-1125 4.5 04:28:27 10° NW 04:31:23 45° WNW 04:31:23 45° WNW
Cosmos 1025 Rocket 3.8 04:36:11 44° NE 04:36:11 44° NE 04:39:33 10° NNE
NOSS 2-2 (E) 4.3 04:37:08 40° NW 04:37:08 40° NW 04:40:52 10° NNE
Cosmos 968 Rocket 4.2 04:32:20 10° N 04:37:13 41° ENE 04:37:59 38° E
BREEZE-M DEB (TANK) 4.5 04:39:04 10° WNW 04:42:23 35° NNE 04:46:30 10° E
CENTAUR R/B 3.9 04:34:45 10° NNW 04:42:29 49° NE 04:48:59 18° ESE
Cosmos 2369 Rocket 2.0 04:44:14 74° SSE 04:44:36 77° ESE 04:50:17 10° NNE
Cosmos 1486 Rocket 4.1 04:42:02 10° NNW 04:47:20 65° ENE 04:47:46 63° E
SL-8 R/B 4.4 04:42:44 10° WNW 04:47:27 53° NNE 04:49:29 31° ENE
ALOS 2 2.8 04:48:55 71° NNW 04:48:55 71° NNW 04:52:51 10° NNW
Meteor 1-21 4.3 04:50:29 59° SW 04:51:19 68° WNW 04:56:57 10° N
Cosmos 1536 Rocket 4.0 04:52:22 57° NE 04:52:22 57° NE 04:55:58 10° NNE
BREEZE-M DEB (TANK) 4.4 04:49:20 27° WSW 04:52:01 76° NNW 05:08:07 10° ENE
Cosmos 1302 Rocket 4.3 04:53:01 55° WSW 04:53:45 61° WNW 04:59:01 10° NNE
Cosmos 1943 Rocket 2.4 04:53:31 54° WSW 04:54:32 65° WNW 05:00:06 10° NNE
SL-27 R/B 4.0 04:51:32 10° NNW 04:53:48 36° N 04:53:48 36° N
Cosmos 1726 3.7 04:51:56 10° N 04:54:23 31° NE 04:54:23 31° NE
Cosmos 1417 Rocket 4.4 04:52:08 10° N 04:58:27 82° W 04:59:31 64° SSW
Cosmos 292 Rocket 3.8 04:59:04 80° NNE 04:59:04 80° NNE 05:03:41 10° NNE
ATLAS 2AS CENTAUR R/B 3.2 04:58:04 49° SSE 04:59:32 55° ESE 05:07:17 10° NE
Lacrosse 5 3.5 04:58:07 10° WNW 05:00:44 23° W 05:00:44 23° W
Cosmos 1544 Rocket 4.3 04:59:34 10° NNW 05:03:06 45° WNW 05:03:06 45° WNW
STARLINK-1103 4.4 05:00:40 10° NW 05:04:34 48° NNE 05:04:34 48° NNE
Cosmos 1271 Rocket 3.8 05:07:03 43° NNW 05:07:03 43° NNW 05:09:54 10° N
Cosmos 1953 3.2 05:03:24 10° N 05:06:29 48° NNE 05:06:29 48° NNE
Cosmos 1340 Rocket 3.8 05:04:42 10° N 05:07:53 42° NE 05:07:53 42° NE
NOSS 3-2 (A) 4.0 05:01:44 10° NW 05:09:25 85° WSW 05:12:15 47° SSE
STARLINK-1101 4.4 05:05:38 10° NW 05:09:19 50° N 05:09:19 50° N
Cosmos 1707 3.8 05:14:32 43° NNW 05:14:32 43° NNW 05:17:28 10° N
STARLINK-1102 4.4 05:10:37 10° NW 05:14:08 51° N 05:14:08 51° N
Cosmos 1758 4.5 05:12:08 10° NNW 05:15:02 38° NW 05:15:02 38° NW
USA 238 DEB 3.8 05:09:32 10° NW 05:16:47 77° WSW 05:18:33 55° SSE
USA 238 3.8 05:09:37 10° NW 05:16:53 78° WSW 05:18:41 55° SSE
Cosmos 2263 4.1 05:18:11 71° SW 05:18:44 80° WNW 05:24:23 10° NNE
STARLINK-1111 4.4 05:15:35 10° NW 05:18:54 50° NNW 05:18:54 50° NNW
COSMOS 2455 3.3 05:21:01 44° ESE 05:21:05 44° ESE 05:26:46 10° NE
Cosmos 1655 Rocket 4.1 05:22:16 54° SW 05:23:25 64° W 05:29:38 10° N
STARLINK-1073 4.5 05:20:33 10° NW 05:23:42 47° NNW 05:23:42 47° NNW
Meteor 2-8 Rocket 4.5 05:19:33 10° NNW 05:25:36 64° W 05:26:24 58° SW
Cosmos 1992 Rocket 3.9 05:25:36 79° W 05:25:45 80° WNW 05:31:00 10° NNE
S3M 4.0 05:19:46 10° NNW 05:25:49 63° W 05:26:39 57° SW
YAOGAN 11 4.4 05:29:15 62° NW 05:29:15 62° NW 05:32:59 10° NNW
Cosmos 1606 Rocket 4.3 05:26:17 10° N 05:30:08 46° ENE 05:30:08 46° ENE
Meteor 2-15 Rocket 4.5 05:25:46 10° N 05:31:55 71° E 05:33:05 57° SE
SL-4 R/B 3.3 05:35:51 40° E 05:35:51 40° E 05:39:07 10° ENE
Cosmos 1833 4.0 05:29:19 10° NNW 05:34:59 86° ENE 05:35:35 72° SE
Cosmos 1674 3.8 05:37:47 41° NNE 05:37:47 41° NNE 05:40:23 10° NNE
Cosmos 1656 Rocket 3.6 05:37:54 69° WSW 05:38:31 79° WNW 05:44:09 10° NNE
In-Cosmos 22 4.1 05:40:22 66° WSW 05:40:42 68° WNW 05:45:59 10° N
CZ-4 R/B 3.7 05:38:15 10° NNE 05:42:58 83° ENE 05:42:58 83° ENE
ATLAS CENTAUR R/B 2.4 05:45:24 41° ENE 05:45:24 41° ENE 05:48:27 10° NE
PSLV R/B 3.7 05:42:57 10° NNE 05:47:14 76° NE 05:47:14 76° NE
Meteor 1-16 Rocket 4.2 05:45:28 10° NNW 05:50:58 62° W 05:51:13 61° WSW
USA 215 4.2 05:55:04 30° WSW 05:55:04 30° WSW 05:59:48 10° WNW
Meteor 2-21 4.5 05:57:56 57° SSE 05:59:09 72° E 06:05:18 10° NNE
Cosmos 1908 4.2 05:57:47 10° NNW 06:00:30 43° NNW 06:00:30 43° NNW
Cosmos 1892 Rocket 3.6 06:06:20 77° NE 06:06:20 77° NE 06:10:28 10° N
RESURS DK-1 3.4 06:06:55 38° E 06:06:55 38° E 06:10:06 10° NE
SL-19 R/B 4.3 06:03:04 10° NNE 06:08:29 65° ESE 06:09:22 57° SSE
NOSS 3-2 (C) 4.2 06:06:54 10° NW 06:14:26 56° WSW 06:16:38 45° SSW
SL-16 R/B 3.5 06:11:17 19° SE 06:15:15 41° ENE 06:20:59 10° N
Timation 2 Rocket 4.4 06:09:24 10° NNW 06:15:41 58° ENE 06:19:13 25° SE
Cosmos 1867 3.4 06:12:22 10° NW 06:17:51 81° WSW 06:18:33 67° S
Helios 1B rocket 3.3 06:14:30 10° N 06:18:08 40° WNW 06:18:08 40° WNW
Cosmos 1726 Rocket 3.8 06:14:15 10° NNW 06:18:00 57° WNW 06:18:00 57° WNW
NOSS 3-4 (A) 3.9 06:19:43 36° WSW 06:21:54 53° NW 06:28:06 10° NNE
NOSS 3-4 (C) 3.9 06:19:49 36° WSW 06:22:00 53° NW 06:28:13 10° NNE
Cosmos 1244 Rocket 4.4 06:21:54 54° SSW 06:23:21 76° W 06:29:35 10° N
Meteor 2-21 Rocket 4.4 06:24:08 55° S 06:25:38 88° E 06:31:51 10° N
DELTA 2 DEB (DPAF) 4.3 06:27:09 60° ESE 06:27:43 67° ENE 06:32:09 10° N
Cosmos 1745 Rocket 4.2 06:26:44 42° SSE 06:28:42 62° E 06:34:44 10° NNE
Meteor 1-29 4.4 06:25:50 10° N 06:28:07 32° NW 06:28:07 32° NW
Cosmos 2369 Rocket 4.3 06:25:59 12° W 06:29:17 19° NW 06:33:13 10° N
Meteor 1-24 Rocket 3.4 06:28:36 64° SW 06:29:22 78° W 06:34:46 10° N
Cosmos 2227 Rocket 4.2 06:24:43 10° N 06:29:27 26° NE 06:34:10 10° ESE
ATLAS 3B R/B 2.6 06:22:53 10° NW 06:29:44 88° ENE 06:34:07 25° SE
CZ-2D R/B 2.8 06:27:51 10° NNE 06:32:52 44° E 06:34:13 36° SE
CENTAUR R/B 3.4 06:25:32 10° NW 06:33:27 51° WSW 06:36:05 40° SSW
ADEOS II 4.2 06:30:39 10° NE 06:34:08 18° E 06:36:56 12° SE
SL-14 R/B 3.7 06:40:24 52° NW 06:40:24 52° NW 06:43:46 10° N
Resurs 1-4 Rocket 2.5 06:36:45 10° NNE 06:41:57 55° E 06:43:26 41° SSE
Cosmos 2084 3.6 06:41:53 61° SE 06:41:57 61° ESE 06:46:22 10° NE
Cosmos 2058 Rocket 3.3 06:38:40 10° NNW 06:42:48 53° W 06:42:48 53° W
Cosmos 2228 4.5 06:40:01 10° NNW 06:42:50 25° WNW 06:42:50 25° WNW
Meteor 2-5 Rocket 4.2 06:42:40 39° WSW 06:43:46 44° WNW 06:49:06 10° N
Cosmos 1300 3.0 06:41:35 10° NNW 06:44:48 56° NW 06:44:48 56° NW
SJ 16-02 3.4 06:42:09 10° N 06:45:53 26° ENE 06:49:36 10° ESE
STARLINK-60 4.5 06:46:07 32° NNW 06:46:07 32° NNW 06:48:54 10° NE
NPP 4.0 06:45:20 10° NNE 06:50:38 56° E 06:52:27 38° SSE
ATLAS 2AS CENTAUR R/B 3.9 06:45:27 19° WSW 06:50:50 43° NW 06:58:19 10° NNE
Cosmos 921 Rocket 2.9 06:50:43 67° W 06:50:54 68° WNW 06:55:11 10° NNE
Okean 1-7 Rocket 4.3 06:51:48 38° W 06:52:00 38° WNW 06:56:13 10° N
GEOS 3 Rocket 3.7 06:51:55 50° SW 06:52:09 50° WSW 06:57:16 10° NW
Cosmos 1626 3.2 06:52:42 34° WNW 06:52:42 34° WNW 06:55:40 10° N
Cosmos 1656 4.4 06:52:38 32° SSE 06:54:34 44° ESE 06:59:53 10° NE
STARLINK-1338 4.5 06:57:53 31° E 06:57:53 31° E 07:00:15 10° ENE
Cosmos 1626 Rocket 3.3 06:58:02 69° SW 06:58:28 78° W 07:02:48 10° N
STARLINK-1330 4.5 07:01:00 29° E 07:01:00 29° E 07:02:52 10° ENE
STARLINK-1363 4.5 07:01:19 29° E 07:01:19 29° E 07:03:12 10° ENE
Cosmos 1437 4.1 07:01:14 30° NNW 07:01:14 30° NNW 07:03:09 10° N
STARLINK-1337 4.4 07:01:39 30° E 07:01:39 30° E 07:03:33 10° ENE
STARLINK-1342 4.4 07:01:59 30° E 07:01:59 30° E 07:03:53 10° ENE
STARLINK-1371 4.3 07:01:49 36° ESE 07:01:49 36° ESE 07:04:25 10° ENE
STARLINK-1364 4.4 07:02:18 30° E 07:02:18 30° E 07:04:14 10° ENE
STARLINK-1376 4.4 07:02:39 31° E 07:02:39 31° E 07:04:36 10° ENE
STARLINK-1360 4.4 07:02:54 31° E 07:02:54 31° E 07:04:52 10° ENE
STARLINK-1361 4.3 07:03:20 31° E 07:03:20 31° E 07:05:18 10° ENE
STARLINK-1367 4.3 07:03:33 32° E 07:03:33 32° E 07:05:36 10° ENE
STARLINK-1366 4.3 07:03:56 32° E 07:03:56 32° E 07:05:57 10° ENE
STARLINK-1341 4.1 07:03:49 38° ESE 07:03:49 38° ESE 07:06:30 10° ENE
SL-08 ROCKET BODY 4.3 07:03:10 43° SSW 07:05:07 72° W 07:10:59 10° N
STARLINK-1374 4.0 07:05:50 41° ESE 07:05:50 41° ESE 07:08:38 10° ENE
Meteor 2-10 Rocket 4.1 07:00:48 10° N 07:06:02 54° ENE 07:09:19 21° SSE
COSMOS 2455 4.0 07:04:08 22° W 07:07:07 34° NW 07:12:35 10° NNE
STARLINK-1339 3.9 07:07:51 43° ESE 07:07:51 43° ESE 07:10:44 10° ENE
CZ-4C R/B 3.3 07:06:15 23° SE 07:07:56 28° ESE 07:12:36 10° NE
BREEZE-M DEB (TANK) 4.0 07:09:48 20° ENE 07:09:48 20° ENE 07:10:39 10° ENE
STARLINK-1377 3.8 07:09:54 47° ESE 07:09:54 47° ESE 07:12:53 10° ENE
STARLINK-1353 3.7 07:11:10 47° ESE 07:11:10 47° ESE 07:14:04 10° ENE
STARLINK-1375 3.6 07:13:00 50° ESE 07:13:00 50° ESE 07:16:03 10° ENE
Cosmos 220 Rocket 4.3 07:12:55 46° WSW 07:13:41 53° WNW 07:18:02 10° N
SL-4 R/B 3.4 07:11:24 20° W 07:14:19 42° NNW 07:18:48 10° NE
STARLINK-29 4.1 07:14:15 35° NW 07:14:35 36° NNW 07:17:35 10° NE
STARLINK-1350 3.5 07:15:18 54° ESE 07:15:18 54° ESE 07:18:25 10° ENE
FALCON 9 DEB 3.4 07:15:12 58° NW 07:15:24 60° NNW 07:18:50 10° NE
STARLINK-1352 3.3 07:18:14 61° SE 07:18:14 61° SE 07:21:37 10° ENE
UNK 3.7 07:17:21 48° SSW 07:18:27 64° WSW 07:23:03 10° NNW
Cosmos 1709 Rocket 3.9 07:15:47 32° S 07:18:46 83° E 07:24:55 10° N
Cosmos 192 4.3 07:17:32 45° SSW 07:19:06 89° WNW 07:24:05 10° NNE
MOZ.5/SAFIR/RUBIN 5/SL-8 4.0 07:18:53 43° WSW 07:19:29 46° W 07:23:57 10° NNW
STARLINK-1368 3.2 07:20:21 65° SE 07:20:21 65° SE 07:23:50 10° ENE
STARLINK-1369 3.1 07:21:39 66° SE 07:21:39 66° SE 07:25:04 10° ENE
Cosmos 1812 Rocket 3.5 07:17:16 10° NNW 07:21:45 74° W 07:22:59 46° SSW
Cosmos 1980 Rocket 4.1 07:19:01 10° SSE 07:23:02 21° E 07:27:11 10° NE
Cosmos 2219 3.1 07:17:20 10° NNW 07:23:03 90° ESE 07:27:40 16° SSE
ATLAS CENTAUR R/B 3.4 07:21:33 16° WNW 07:23:28 20° NW 07:26:37 10° N
STARLINK-1372 3.1 07:24:38 70° SSE 07:24:48 72° SE 07:28:19 10° ENE
STARLINK-1378 3.0 07:26:48 70° S 07:27:03 75° SE 07:30:35 10° NE
AQUA 3.7 07:22:18 10° NNE 07:27:05 83° WNW 07:28:51 39° SSW
Cosmos 1455 2.2 07:23:56 10° N 07:27:41 73° E 07:28:55 40° SSE
STARLINK-1329 3.0 07:27:25 70° S 07:27:41 76° SE 07:31:15 10° NE
STARLINK-1365 3.0 07:27:36 72° SSW 07:27:52 80° SE 07:31:23 10° NE
STARLINK-1379 3.0 07:28:58 69° SSW 07:29:18 79° SE 07:32:50 10° NE
STARLINK-1362 3.0 07:29:39 68° SSW 07:30:01 80° SE 07:33:34 10° NE
Cosmos 1602 Rocket 4.0 07:30:32 38° WSW 07:31:25 43° WNW 07:35:33 10° N
Cosmos 1825 Rocket 3.7 07:29:44 34° S 07:31:29 69° E 07:35:47 10° NNE
STARLINK-1373 3.0 07:31:53 65° SW 07:32:21 84° SE 07:35:55 10° NE
CZ-4B R/B 3.6 07:27:37 10° N 07:32:45 71° WNW 07:35:02 34° SSW
STARLINK-1390 3.0 07:33:23 64° SW 07:33:51 86° SE 07:37:23 10° NE
Cosmos 2297 Rocket 2.1 07:32:33 10° NNW 07:38:14 85° WSW 07:43:52 10° SSE
FALCON 9 R/B 4.2 07:32:38 20° WSW 07:38:28 58° S 08:06:34 10° ESE
Cosmos 990 Rocket 4.1 07:33:31 10° NNW 07:38:48 78° ENE 07:44:02 10° SSE
CBERS-1 4.0 07:35:46 10° NNE 07:40:54 89° WNW 07:43:36 29° SSW
Cosmos 2082 4.5 07:36:31 10° NNW 07:42:05 53° ENE 07:47:34 10° SE
GP-B 3.0 07:39:29 10° N 07:43:56 74° W 07:45:56 32° SSW
RESURS DK-1 4.3 07:42:47 16° W 07:44:24 19° NW 07:47:26 10° N
Cosmos-2242 2.9 07:40:50 10° N 07:45:07 84° E 07:47:46 22° S
Cosmos 841 Rocket 4.2 07:44:45 19° S 07:48:15 50° ESE 07:53:19 10° NNE
STARLINK-1212 2.7 07:45:10 10° WNW 07:48:16 71° SW 07:51:20 10° SE
STARLINK-1218 4.4 07:44:31 10° NW 07:48:36 53° NNE 07:52:39 10° ESE
STARLINK-1105 2.6 07:45:38 10° WNW 07:48:43 70° SW 07:51:47 10° SE
STARLINK-1228 4.2 07:45:39 10° WNW 07:53:47 - SE 07:47:32 28° W
STARLINK-1247 2.7 07:46:33 10° WNW 07:49:39 69° SW 07:52:45 10° SE
Cosmos 1703 3.2 07:48:14 36° SSW 07:49:45 77° W 07:53:44 10° N
STARLINK-1227 2.7 07:47:01 10° WNW 07:50:06 68° SW 07:53:10 10° SE
STARLINK-1226 2.7 07:47:52 10° WNW 07:50:57 67° SW 07:54:02 10° SE
STARLINK-1215 2.7 07:48:48 10° WNW 07:51:55 65° SW 07:55:00 10° SE
STARLINK-1254 4.3 07:49:30 10° NW 07:53:36 57° NNE 07:57:41 10° ESE
STARLINK-1217 2.7 07:50:35 10° WNW 07:53:40 62° SW 07:56:45 10° SE
IRS-1D 3.6 07:48:49 10° N 07:54:08 69° WNW 07:57:11 25° SSW
STARLINK-1229 2.7 07:51:30 10° WNW 07:54:36 61° SW 07:57:40 10° SE
BREEZE-M R/B 3.5 07:51:52 16° W 07:54:50 40° NNW 07:57:31 10° NE
STARLINK-1270 2.8 07:52:22 10° WNW 07:55:28 60° SW 07:58:32 10° SE
SL-08 R/B 3.5 07:51:29 10° SSE 07:56:10 74° ENE 08:00:49 10° N
STARLINK-1189 2.8 07:54:13 10° WNW 07:57:17 57° SW 08:00:21 10° SE
STARLINK-1188 2.8 07:55:07 10° WNW 07:58:11 56° SW 08:01:14 10° SE
STARLINK-1231 4.1 07:54:30 10° NW 07:58:36 62° NNE 08:02:42 10° ESE
SL-16 R/B 3.3 07:56:22 24° SW 07:58:55 33° W 08:04:24 10° NNW
STARLINK-1187 3.0 07:56:15 10° WNW 07:59:14 46° SW 08:02:14 10° SSE
Cosmos 2074 Rocket 4.3 07:54:33 13° S 08:00:12 70° E 08:06:29 10° NNE
ATLAS CENTAUR R/B 2.3 07:57:05 10° NW 08:00:23 73° SW 08:08:29 10° SE
STARLINK-1191 2.9 07:57:36 10° WNW 08:00:37 52° SW 08:03:39 10° SE
STARLINK-1221 2.9 07:58:27 10° WNW 08:01:29 51° SW 08:04:30 10° SE
STARLINK-1222 2.9 07:59:22 10° WNW 08:02:23 50° SW 08:05:24 10° SE
STARLINK-1214 2.9 08:00:16 10° WNW 08:03:17 49° SW 08:06:17 10° SE
STARLINK-1232 4.0 07:59:28 10° NW 08:03:36 67° NE 08:07:43 10° ESE
Cosmos 1763 Rocket 3.6 08:03:51 24° SW 08:06:48 60° WNW 08:11:51 10° NNE
USA 234 4.2 08:01:57 10° ENE 08:07:58 38° SE 08:13:10 13° SSW
STARLINK-1208 3.8 08:04:25 10° NW 08:08:34 73° NE 08:12:41 10° ESE
Cosmos 1758 Rocket 4.3 08:08:01 24° WSW 08:09:53 36° WNW 08:13:56 10° N
H-2A R/B 2.9 08:07:19 10° SSE 08:11:29 53° ENE 08:15:47 10° N
Cosmos 2184 Rocket 4.0 08:06:17 12° S 08:11:58 82° E 08:18:10 10° N
IRS-P3 4.2 08:06:49 10° N 08:12:07 68° WNW 08:15:57 19° SSW
CZ-2D R/B 3.5 08:08:26 10° N 08:12:39 25° WNW 08:15:32 16° WSW
STARLINK-1271 3.7 08:09:24 10° NW 08:13:34 79° NE 08:17:42 10° ESE
Cosmos 2227 Rocket 2.4 08:08:18 10° NW 08:13:47 51° WSW 08:19:14 10° S
Cosmos 1697 Rocket 2.7 08:10:09 21° SSW 08:14:03 78° WNW 08:19:46 10° NNE
BREEZE-M DEB (TANK) 1.5 08:11:46 10° WNW 08:14:04 61° NNE 08:16:17 10° ESE
ADEOS II 2.3 08:09:02 10° N 08:14:13 59° WNW 08:17:53 19° SW
Lacrosse 4 Rocket 2.2 08:14:04 10° NNW 08:18:20 55° ENE 08:22:28 10° SE
STARLINK-1154 3.6 08:14:23 10° NW 08:18:33 86° NE 08:22:42 10° SE
ATLAS 3B R/B 4.0 08:15:14 10° WNW 08:19:37 18° WSW 08:21:15 17° SW
SL-16 R/B 4.5 08:16:58 10° SE 08:20:47 19° E 08:24:37 10° ENE
Resurs 1-4 Rocket 3.7 08:17:30 10° NNW 08:21:21 21° WNW 08:24:31 13° WSW
STARLINK-1197 3.5 08:19:22 10° NW 08:23:31 87° SW 08:27:40 10° SE
Cosmos 2181 Rocket 4.4 08:17:48 10° NNW 08:23:53 47° W 08:29:36 12° SSW
ARIANE 5 R/B 2.5 08:18:56 10° N 08:24:00 76° WNW 08:28:16 14° SSW
SJ 16-02 2.2 08:20:35 10° NW 08:24:27 30° W 08:26:56 18° SSW
STARLINK-1320 4.4 08:23:23 14° W 08:25:37 29° NNW 08:28:25 10° NE
STARLINK-1322 4.4 08:23:42 13° W 08:25:58 29° NNW 08:28:46 10° NE
Cosmos 1953 Rocket 4.1 08:23:20 19° SW 08:26:12 45° WNW 08:30:29 10° N
STARLINK-1324 4.4 08:24:03 13° W 08:26:19 29° NNW 08:29:08 10° NE
STARLINK-1294 4.4 08:24:18 13° W 08:26:36 29° NNW 08:29:25 10° NE
STARLINK-1261 4.4 08:24:41 13° W 08:26:59 29° NNW 08:29:46 10° NE
STARLINK-1325 4.5 08:25:02 13° W 08:27:20 29° NNW 08:30:07 10° NE
STARLINK-1333 4.5 08:25:19 13° W 08:27:39 29° NNW 08:30:26 10° NE
STARLINK-1334 4.5 08:25:39 13° W 08:28:00 28° NNW 08:30:47 10° NE
STARLINK-1326 4.5 08:25:59 13° W 08:28:21 28° NNW 08:31:07 10° NE
STARLINK-1198 3.5 08:24:19 10° NW 08:28:28 81° SW 08:32:36 10° SE
STARLINK-1323 4.5 08:26:18 12° W 08:28:41 28° NNW 08:31:27 10° NE
STARLINK-1349 4.5 08:26:37 12° W 08:29:00 28° NNW 08:31:46 10° NE
Spot 4 Rocket 4.0 08:25:11 10° NNE 08:30:22 89° ESE 08:35:30 10° SSW
Iridium 2 3.6 08:28:14 10° N 08:32:01 90° WSW 08:35:46 10° S
Cosmos 1898 Rocket 4.1 08:27:33 10° NW 08:32:24 37° WSW 08:37:13 10° SSW
STARLINK-1199 3.5 08:29:20 10° WNW 08:33:28 74° SW 08:37:35 10° SE
CZ-4B R/B 4.3 08:31:36 10° ESE 08:33:39 17° ENE 08:35:43 10° NNE
Cosmos 1842 Rocket 3.8 08:31:33 10° N 08:36:03 78° E 08:40:31 10° SSE
Meteor 1-27 4.2 08:32:40 10° NNW 08:38:14 79° W 08:43:47 10° S
STARLINK-43 4.1 08:35:34 15° SSW 08:38:17 41° SE 08:41:46 10° ENE
STARLINK-1210 3.5 08:34:19 10° WNW 08:38:26 67° SW 08:42:32 10° SE
Cosmos 1570 Rocket 4.4 08:34:45 15° SW 08:38:59 51° WNW 08:44:11 10° N
IDEFIX/ARIANE 42P 2.8 08:34:01 10° NNE 08:39:19 76° ESE 08:44:34 10° S
ERS-2 2.4 08:37:53 10° S 08:41:24 46° W 08:44:58 10° NNW
Cosmos 2208 Rocket 4.2 08:37:50 14° SW 08:42:14 57° WNW 08:47:28 10° NNE
Cosmos 1937 Rocket 3.9 08:37:22 10° NW 08:42:16 41° WSW 08:47:11 10° S
STARLINK-1219 3.6 08:39:18 10° WNW 08:43:24 61° SW 08:47:28 10° SE
Cosmos 2154 Rocket 4.0 08:37:40 10° S 08:43:59 88° W 08:50:18 10° N
USA 129 1.1 08:42:36 10° NNE 08:44:24 57° E 08:44:57 26° S
STARLINK-1211 3.7 08:44:17 10° WNW 08:48:21 56° SW 08:52:23 10° SE
Cosmos 2369 4.3 08:43:42 13° SW 08:48:28 44° WNW 08:53:53 10° NNE
IRIDIUM 104 4.3 08:47:15 10° S 08:52:27 78° W 08:57:42 10° N
STARLINK-1245 3.8 08:49:18 10° WNW 08:53:19 51° SW 08:57:19 10° SSE
SL-4 R/B 4.3 08:50:54 10° WNW 08:54:55 26° N 08:58:47 10° NE
CZ-4C R/B 2.8 08:51:25 11° WSW 08:56:05 43° NW 09:01:47 10° NNE
Cosmos 2285 Rocket 4.5 08:50:44 10° NNW 08:56:38 41° W 09:02:26 10° SSW
Cosmos 1814 Rocket 4.5 08:52:02 11° SW 08:57:03 48° WNW 09:02:13 10° N
Meteor 2-2 Rocket 4.5 08:51:35 10° N 08:57:39 89° W 09:03:41 10° S
STARLINK-1233 3.9 08:54:18 10° WNW 08:58:16 46° SW 09:02:13 10° SSE
CZ-2C R/B 3.8 08:54:23 10° NNE 08:59:14 41° E 09:04:06 10° SSE
IRIDIUM 114 4.4 08:56:28 10° SSW 09:01:38 64° W 09:06:49 10° N
Cosmos 1125 Rocket 4.2 08:57:05 10° NNW 09:02:14 60° ENE 09:07:22 10° SSE
Meteor 1-28 Rocket 4.2 08:59:30 10° SSW 09:02:46 27° W 09:06:03 10° NW
STARLINK-1204 4.0 08:59:20 10° WNW 09:03:15 42° SW 09:07:08 10° SSE
Cosmos 1076 Rocket 3.7 08:59:19 10° S 09:03:39 81° E 09:08:03 10° N
Uosat 12 SS-18 rocket 4.0 09:00:02 10° NW 09:04:20 73° WSW 09:08:57 10° SSE
BREEZE-M DEB (TANK) 3.9 09:03:12 10° NW 09:05:16 24° NNE 09:08:23 10° ENE
Landsat 5 3.8 09:01:40 10° S 09:06:02 53° W 09:10:29 10° NNW
Cosmos 1980 Rocket 2.5 09:01:05 10° SW 09:06:34 55° WNW 09:12:07 10° NNE
STARLINK-1238 4.1 09:04:20 10° WNW 09:08:11 38° SW 09:12:01 10° SSE
Timation 1 Rocket 4.4 09:03:07 10° NNW 09:09:08 88° WSW 09:15:05 10° SSE
CZ-2D R/B 4.4 09:06:07 10° N 09:09:48 33° WNW 09:13:34 10° SW
STARLINK-1239 4.4 09:06:29 10° NW 09:10:35 56° NNE 09:14:39 10° ESE
Cosmos 1892 2.7 09:08:44 10° S 09:12:34 81° W 09:16:25 10° N
STARLINK-1201 4.2 09:09:22 10° WNW 09:13:08 34° SW 09:16:54 10° SSE
CZ-4C R/B 3.9 09:10:23 10° SSW 09:13:35 31° W 09:16:51 10° NNW
STARLINK-33 4.3 09:12:05 10° SSW 09:14:58 31° SE 09:17:51 10° ENE
STARLINK-1240 4.3 09:11:27 10° NW 09:15:35 60° NNE 09:19:39 10° ESE
